2023/08/05 00:00:00, 0.0,22.0
2023/08/05 00:10:00, 0.0,21.7
2023/08/05 00:20:00, 0.0,21.6
2023/08/05 00:30:00, 0.0,21.9
2023/08/05 00:40:00, 0.0,21.5
2023/08/05 00:50:00, 0.0,21.8
2023/08/05 01:00:00, 0.0,21.9
2023/08/05 01:10:00, 0.0,21.6
2023/08/05 01:20:00, 0.0,21.7
2023/08/05 01:30:00, 0.0,21.6
2023/08/05 01:40:00, 0.0,21.9
2023/08/05 01:50:00, 0.0,21.7
2023/08/05 02:00:00, 0.0,21.5
2023/08/05 02:10:00, 0.0,21.5
2023/08/05 02:20:00, 0.0,20.9
2023/08/05 02:30:00, 0.0,21.2
2023/08/05 02:40:00, 0.0,21.3
2023/08/05 02:50:00, 0.0,21.2
2023/08/05 03:00:00, 0.0,21.4
2023/08/05 03:10:00, 0.0,21.2
2023/08/05 03:20:00, 0.0,21.1
2023/08/05 03:30:00, 0.0,21.0
2023/08/05 03:40:00, 0.0,21.0
2023/08/05 03:50:00, 0.0,21.2
2023/08/05 04:00:00, 0.0,21.3
2023/08/05 04:10:00, 0.0,21.1
2023/08/05 04:20:00, 0.0,21.1
2023/08/05 04:30:00, 0.0,21.2
2023/08/05 04:40:00, 0.0,21.0
2023/08/05 04:50:00, 0.0,21.0
2023/08/05 05:00:00, 0.0,21.0
2023/08/05 05:10:00, 0.0,21.0
2023/08/05 05:20:00,37.7,21.2
2023/08/05 05:30:00,37.2,21.0
2023/08/05 05:40:00,36.9,21.3
2023/08/05 05:50:00,36.4,21.8
2023/08/05 06:00:00,36.2,21.9
2023/08/05 06:10:00,36.2,22.3
2023/08/05 06:20:00,36.0,22.5
2023/08/05 06:30:00,35.9,23.1
2023/08/05 06:40:00,36.0,23.5
2023/08/05 06:50:00,35.9,23.4
2023/08/05 07:00:00,35.7,23.7
2023/08/05 07:10:00,35.4,24.5
2023/08/05 07:20:00,35.3,24.7
2023/08/05 07:30:00,34.7,25.6
2023/08/05 07:40:00,25.3,25.7
2023/08/05 07:50:00,37.5,25.9
2023/08/05 08:00:00,37.9,25.9
2023/08/05 08:10:00, 4.4,26.1
2023/08/05 08:20:00,---,25.8
2023/08/05 08:30:00,---,29.9
2023/08/05 08:40:00,---,30.8
2023/08/05 08:50:00,17.6,29.9
2023/08/05 09:00:00,---,29.1
2023/08/05 09:10:00,---,28.7
2023/08/05 09:20:00, 1.3,28.8
2023/08/05 09:30:00, 9.6,28.9
2023/08/05 09:40:00,25.0,29.3
2023/08/05 09:50:00,---,29.5
2023/08/05 10:00:00,---,29.4
2023/08/05 10:10:00,---,30.2
2023/08/05 10:20:00, 0.0,29.7
2023/08/05 10:30:00,---,30.0
2023/08/05 10:40:00, 0.0,28.9
2023/08/05 10:50:00,---,29.4
2023/08/05 11:00:00, 0.1,29.7
2023/08/05 11:10:00, 0.2,30.0
2023/08/05 11:20:00, 0.3,29.6
2023/08/05 11:30:00, 0.4,29.8
2023/08/05 11:40:00, 0.3,30.0
2023/08/05 11:50:00, 0.3,30.4
2023/08/05 12:00:00, 0.5,31.4
2023/08/05 12:10:00, 0.0,31.2
2023/08/05 12:20:00,13.2,30.6
2023/08/05 12:30:00,---,30.0
2023/08/05 12:40:00, 0.3,30.5
2023/08/05 12:50:00, 8.3,30.5
2023/08/05 13:00:00,11.4,30.3
2023/08/05 13:10:00, 0.4,31.2
2023/08/05 13:20:00, 0.4,30.5
2023/08/05 13:30:00, 0.7,31.4
2023/08/05 13:40:00, 0.7,32.2
2023/08/05 13:50:00, 0.5,31.7
2023/08/05 14:00:00, 0.3,31.6
2023/08/05 14:10:00,22.7,31.7
2023/08/05 14:20:00, 0.4,31.6
2023/08/05 14:30:00, 2.9,30.3
2023/08/05 14:40:00, 1.9,31.7
2023/08/05 14:50:00, 0.5,32.4
2023/08/05 15:00:00, 0.6,32.6
2023/08/05 15:10:00, 0.5,32.3
2023/08/05 15:20:00, 0.5,33.2
2023/08/05 15:30:00, 0.5,32.8
2023/08/05 15:40:00, 0.5,32.8
2023/08/05 15:50:00,---,31.8
2023/08/05 16:00:00, 0.7,32.5
2023/08/05 16:10:00, 0.4,32.5
2023/08/05 16:20:00, 0.4,32.6
2023/08/05 16:30:00, 0.3,32.1
2023/08/05 16:40:00, 0.3,31.9
2023/08/05 16:50:00,20.5,31.4
2023/08/05 17:00:00,---,29.7
2023/08/05 17:10:00, 0.2,29.9
2023/08/05 17:20:00, 0.0,29.2
2023/08/05 17:30:00, 0.0,28.5
2023/08/05 17:40:00, 0.0,28.5
2023/08/05 17:50:00, 0.1,28.1
2023/08/05 18:00:00,14.3,27.2
2023/08/05 18:10:00,35.4,27.0
2023/08/05 18:20:00,35.4,26.5
2023/08/05 18:30:00,35.4,26.4
2023/08/05 18:40:00,35.5,26.2
2023/08/05 18:50:00,35.4,26.5
2023/08/05 19:00:00,35.5,26.1
2023/08/05 19:10:00,35.6,26.3
2023/08/05 19:20:00,35.5,26.5
2023/08/05 19:30:00,35.5,26.1
2023/08/05 19:40:00,35.5,25.4
2023/08/05 19:50:00,35.5,25.1
2023/08/05 20:00:00,35.6,24.7
2023/08/05 20:10:00,35.6,24.9
2023/08/05 20:20:00,35.7,24.8
2023/08/05 20:30:00,35.7,24.7
2023/08/05 20:40:00,35.9,24.3
2023/08/05 20:50:00,35.9,24.1
2023/08/05 21:00:00,36.1,24.1
2023/08/05 21:10:00,36.3,24.0
2023/08/05 21:20:00,36.5,23.6
2023/08/05 21:30:00,36.8,23.8
2023/08/05 21:40:00,47.0,24.0
2023/08/05 21:50:00, 0.0,23.1
2023/08/05 22:00:00, 0.0,23.7
2023/08/05 22:10:00, 0.0,23.9
2023/08/05 22:20:00, 0.0,23.7
2023/08/05 22:30:00, 0.0,23.9
2023/08/05 22:40:00, 0.0,23.5
2023/08/05 22:50:00, 0.0,23.5
2023/08/05 23:00:00, 0.0,23.9
2023/08/05 23:10:00, 0.0,23.7
2023/08/05 23:20:00, 0.0,24.2
2023/08/05 23:30:00, 0.0,23.4
2023/08/05 23:40:00, 0.0,23.6
2023/08/05 23:50:00, 0.0,24.6
